Gulkana, AK

8:09 PM AKDT on June 25, 2017 (GMT -0800)
Gulkana

Weather History for PAGK - February, 2014

Change the Weather History Date:

Thursday, February 20, 2014

  Actual Average Record
Temperature  
Mean Temperature -6 °F -  
Max Temperature 6 °F 14 °F 39 °F (1964)
Min Temperature -17 °F -6 °F -43 °F (1965)
Degree Days  
Heating Degree Days 70    
Moisture  
Dew Point -10 °F    
Average Humidity 80    
Maximum Humidity 88    
Minimum Humidity 68    
Precipitation  
Precipitation 0.00 in - - ()
Sea Level Pressure  
Sea Level Pressure 30.08 in    
Wind  
Wind Speed 1 mph (NW)    
Max Wind Speed 5 mph    
Max Gust Speed -    
Visibility 10 miles    
Events      
Averages and records for this station are not official NWS values.
T = Trace of Precipitation, MM = Missing Value Source: NWS Daily Summary

Daily Weather History Graph

Daily Weather History Graph

Search for Another Location

Airport or City:

Trip Planner

Search our weather history database for the weather conditions in past years. The results will help you decide how hot, cold, wet, or windy it might be!

Date:

Astronomy

Feb. 20, 2014 Rise Set
Actual Time 8:12 AM AKST 5:40 PM AKST
Civil Twilight 7:26 AM AKST 6:26 PM AKST
Nautical Twilight 6:34 AM AKST 7:18 PM AKST
Astronomical Twilight 5:42 AM AKST 8:09 PM AKST
Moon 12:23 AM AKST (2/20) 9:12 AM AKST (2/20)
Length of Visible Light 11h 00m
Length of Day
9h 27m
Waning Gibbous, 69% of the Moon is Illuminated
Feb 20
Waning Gibbous
Feb 22
Last Quarter
Feb 28
New
Mar 8
First Quarter
Mar 16
Full

Hourly Weather History & Observations

Time (AKST) Temp. Windchill Dew Point Humidity Pressure Visibility Wind Dir Wind Speed Gust Speed Precip Events Conditions
12:53 AM -8.0 °F - -11.9 °F 83% 29.84 in 10.0 mi Calm Calm - N/A   Overcast
1:53 AM -8.0 °F -16.9 °F -13.0 °F 79% 29.86 in 10.0 mi NW 3.5 mph - N/A   Overcast
3:53 AM -9.0 °F -20.4 °F -13.0 °F 83% 29.88 in 10.0 mi NNW 4.6 mph - N/A   Mostly Cloudy
4:53 AM -9.0 °F -18.2 °F -14.1 °F 79% 29.90 in 10.0 mi NNW 3.5 mph - N/A   Overcast
5:53 AM -9.9 °F -21.5 °F -14.1 °F 82% 29.93 in 10.0 mi NNW 4.6 mph - N/A   Partly Cloudy
6:53 AM -9.0 °F - -14.1 °F 79% 29.96 in 10.0 mi Calm Calm - N/A   Overcast
7:53 AM -9.9 °F - -14.1 °F 82% 29.99 in 10.0 mi Calm Calm - N/A   Scattered Clouds
8:53 AM -9.9 °F - -15.0 °F 78% 30.02 in 10.0 mi Calm Calm - N/A   Partly Cloudy
9:53 AM -9.0 °F - -13.0 °F 83% 30.05 in 10.0 mi Calm Calm - N/A   Mostly Cloudy
10:53 AM -5.1 °F - -9.9 °F 80% 30.06 in 10.0 mi Calm Calm - N/A   Overcast
11:53 AM -0.0 °F - -7.1 °F 72% 30.07 in 10.0 mi Calm Calm - N/A   Overcast
12:53 PM -0.9 °F - -6.0 °F 79% 30.09 in 10.0 mi Calm Calm - N/A   Overcast
1:53 PM 1.9 °F - -2.9 °F 80% 30.11 in 10.0 mi Calm Calm - N/A   Overcast
2:53 PM 3.0 °F - -2.0 °F 80% 30.12 in 10.0 mi Calm Calm - N/A   Overcast
3:53 PM 3.9 °F - -0.0 °F 84% 30.13 in 10.0 mi Calm Calm - N/A   Overcast
4:53 PM 1.9 °F - -0.9 °F 88% 30.15 in 10.0 mi Calm Calm - N/A   Overcast
5:53 PM 1.0 °F - -2.0 °F 87% 30.17 in 10.0 mi Calm Calm - N/A   Mostly Cloudy
6:53 PM -2.0 °F - -6.0 °F 83% 30.19 in 10.0 mi Calm Calm - N/A   Overcast
7:53 PM -4.0 °F - -8.0 °F 83% 30.22 in 10.0 mi Calm Calm - N/A   Overcast
8:53 PM -8.0 °F - -11.0 °F 86% 30.25 in 10.0 mi Calm Calm - N/A   Clear
9:53 PM -11.0 °F - -15.0 °F 83% 30.27 in 10.0 mi Calm Calm - N/A   Clear
10:53 PM -14.1 °F - -18.0 °F 82% 30.29 in 10.0 mi Calm Calm - N/A   Clear
11:53 PM -16.1 °F - -20.0 °F 82% 30.31 in 10.0 mi Calm Calm - N/A   Clear